TimePDT,TemperatureF,Dew PointF,Humidity,Sea Level PressureIn,VisibilityMPH,Wind Direction,Wind SpeedMPH,Gust SpeedMPH,PrecipitationIn,Events,Conditions,WindDirDegrees,DateUTC
12:55 AM,68.0,43.0,40,30.05,10.0,NNW,15.0,19.6,N/A,,Clear,330,2013-05-10 07:55:00
1:55 AM,66.0,43.0,43,30.06,10.0,NNW,12.7,-,N/A,,Clear,340,2013-05-10 08:55:00
2:55 AM,64.0,42.1,45,30.07,10.0,WNW,6.9,-,N/A,,Clear,290,2013-05-10 09:55:00
3:55 AM,61.0,41.0,48,30.09,10.0,West,5.8,-,N/A,,Clear,270,2013-05-10 10:55:00
6:55 AM,57.9,39.9,51,30.10,10.0,West,8.1,-,N/A,,Clear,260,2013-05-10 13:55:00
7:55 AM,60.1,39.0,46,30.12,10.0,WNW,4.6,-,N/A,,Clear,290,2013-05-10 14:55:00
8:55 AM,68.0,37.9,33,30.11,10.0,West,9.2,-,N/A,,Clear,280,2013-05-10 15:55:00
10:55 AM,75.0,37.0,25,30.10,10.0,West,8.1,-,N/A,,Clear,280,2013-05-10 17:55:00
11:55 AM,79.0,37.0,22,30.09,10.0,WSW,5.8,-,N/A,,Clear,250,2013-05-10 18:55:00
12:55 PM,84.0,37.0,19,30.07,10.0,Variable,5.8,-,N/A,,Clear,0,2013-05-10 19:55:00
1:55 PM,87.1,34.0,15,30.05,10.0,Calm,Calm,-,N/A,,Clear,0,2013-05-10 20:55:00
2:55 PM,89.1,32.0,13,30.04,10.0,Variable,3.5,-,N/A,,Clear,0,2013-05-10 21:55:00
3:55 PM,91.0,30.9,12,30.01,10.0,ESE,4.6,-,N/A,,Clear,110,2013-05-10 22:55:00
4:55 PM,91.0,30.0,11,30.00,10.0,Calm,Calm,-,N/A,,Clear,0,2013-05-10 23:55:00
5:55 PM,90.0,30.9,12,30.00,10.0,West,3.5,-,N/A,,Clear,260,2013-05-11 00:55:00
6:55 PM,89.1,34.0,14,29.99,10.0,West,10.4,-,N/A,,Clear,280,2013-05-11 01:55:00
7:55 PM,84.9,36.0,17,30.01,10.0,NW,11.5,-,N/A,,Clear,320,2013-05-11 02:55:00
8:55 PM,80.1,37.0,21,30.03,10.0,West,4.6,-,N/A,,Clear,270,2013-05-11 03:55:00
9:55 PM,78.1,37.0,23,30.05,10.0,NW,6.9,-,N/A,,Clear,320,2013-05-11 04:55:00
10:55 PM,75.9,37.9,25,30.06,10.0,NNW,8.1,-,N/A,,Clear,330,2013-05-11 05:55:00
11:55 PM,73.9,41.0,30,30.06,10.0,NW,10.4,-,N/A,,Clear,320,2013-05-11 06:55:00